Regional Weather Roundup
Issued by NWS

Home | Current Version | Previous Version | Text Only | Print | Product List | Glossary On
Versions: 1 2 3 4 5 6 7 8 9 10 11 12 13 14 15 16 17 18 19 20 21 22 23 24 25 26 27 28 29 30 31 32 33 34 35 36 37 38 39 40 41 42 43 44 45 46 47 48 49 50
000
ASUS46 KSTO 261704
RWRCA

NORTHERN AND CENTRAL CA REGIONAL WEATHER ROUNDUP
NATIONAL WEATHER SERVICE SACRAMENTO CA
1000 AM PDT WED JUL 26 2017

NOTE: FAIR INDICATES FEW OR NO CLOUDS BELOW 12,000 FEET WITH NO
SIGNIFICANT WEATHER AND/OR OBSTRUCTIONS TO VISIBILITY.

CAZ001-003-261800-
NORTHWEST AREA

CITY           SKY/WX    TMP DP  RH WIND       PRES   REMARKS
CRESCENT CITY  CLOUDY    54  53  97 S6        30.07S
UKIAH          SUNNY     71  54  54 E3        30.03F
$$

CAZ006-505>513-261800-
BAY AREA

CITY           SKY/WX    TMP DP  RH WIND       PRES   REMARKS
SANTA ROSA     CLOUDY    60  54  80 CALM      30.06R
SAN RAFAEL     N/A       57  MM  MM MISG
NAPA           MOSUNNY   68  55  63 SW8       30.05S
CONCORD        SUNNY     69  56  62 VRB5      30.04S
OAKLAND CITY   N/A      MM  MM  MM MISG
OAKLAND        CLOUDY    61  58  90 NW7       30.07S
SAN FRAN CITY  N/A       58  MM  96 MISG
SAN FRAN ARPT  CLOUDY    62  55  77 NW12      30.06R
LIVERMORE      MOSUNNY   65  56  72 VRB7      30.04S
HAYWARD        CLOUDY    64  53  67 NW7       30.06S
REDWOOD CITY   N/A       64  MM  80 MISG
MOFFETT ARPT   CLOUDY    66  58  75 NE5       30.06S
SAN JOSE ARPT  MOSUNNY   69  58  67 CALM      30.05S
$$
CAZ034-037-514>518-261800-
CENTRAL COAST

CITY           SKY/WX    TMP DP  RH WIND       PRES   REMARKS
WATSONVILLE    CLOUDY    61  57  87 VRB3      30.06F
SALINAS        CLOUDY    63  56  78 VRB3      30.05F
MONTEREY       CLOUDY    60  55  83 NW5       30.07S
SAN LUIS OBISP SUNNY     67  56  67 VRB3      30.04S
SANTA MARIA    MOSUNNY   67  58  72 NW8       30.04S
$$
CAZ015-016-261800-
NORTHERN SACRAMENTO VALLEY

CITY           SKY/WX    TMP DP  RH WIND       PRES   REMARKS
REDDING        SUNNY     84  54  35 S5        29.99S
RED BLUFF      SUNNY     82  55  39 CALM      30.00S
OROVILLE       SUNNY     78  57  48 VRB3      30.01S
$$
CAZ016>018-261800-
SOUTHERN SACRAMENTO VALLEY

CITY           SKY/WX    TMP DP  RH WIND       PRES   REMARKS
AUBURN         SUNNY     84  54  34 W7        30.04S
BEALE AFB      SUNNY     77  56  49 CALM      29.98S
LINCOLN        FAIR      77  50  38 SW5       29.99S
MARYSVILLE     SUNNY     77  55  46 VRB3      30.00S
SAC INTL ARPT  SUNNY     73  55  53 SW5       29.99S
MATHER AIRPORT SUNNY     73  54  49 SW6       30.00S
DOWNTOWN SAC   N/A       74  MM  MM MISG
SAC EXEC ARPT  SUNNY     72  56  57 S7        30.00S
VACAVILLE      SUNNY     79  50  36 SW5       30.00F
TRAVIS AFB     SUNNY     71  54  55 SW18      29.99R
$$
CAZ019>021-261800-
SAN JOAQUIN VALLEY

CITY           SKY/WX    TMP DP  RH WIND       PRES   REMARKS
STOCKTON       SUNNY     76  59  55 NW8       30.00F
MODESTO        SUNNY     76  57  51 NW8       29.99S
MERCED         SUNNY     77  55  46 N12       29.98F
LEMOORE        SUNNY     83  56  39 NW8       30.00R
FRESNO         MOSUNNY   83  54  36 SE3       29.99S
HANFORD        SUNNY     83  54  36 NW10      29.99S
PORTERVILLE      N/A     81  58  45 VRB3      29.99F
BAKERSFIELD    SUNNY     85  53  33 CALM      29.98S
$$
CAZ011-012-071-261800-
NORTHERN MOUNTAINS

CITY           SKY/WX    TMP DP  RH WIND       PRES   REMARKS
YREKA          PTSUNNY   76  51  41 CALM      30.12S
MOUNT SHASTA   MOSUNNY   75  51  43 CALM      30.15F
ALTURAS        SUNNY     68  57  68 CALM      30.22S
$$
CAZ011-012-071-261800-
SIERRA NEVADA MTNS

CITY           SKY/WX    TMP DP  RH WIND       PRES   REMARKS
TRUCKEE          N/A     70  48  46 CALM      30.29F
TAHOE VLY ARPT MOSUNNY   71  45  39 S8G22     30.29F
MAMMOTH LAKES  FAIR      71  44  37 SE6       30.37S
$$




USA.gov is the U.S. government's official web portal to all federal, state and local government web resources and services.